User: anonymous
Location: Caltech
(34.1382°N, 118.1253°W)
Time: 13:01:04
(UTC-07:00)
Language:

Gurwin Techsat 1B - Orbit

View from above orbital plane
View from above orbital plane
View from above satellite
View from above satellite

Ground track
Ground track

The orbit data is extracted from the following two-line orbital elements,

1 25397U 98043D   14261.15839478  .00000075  00000-0  51358-4 0  4419
2 25397 098.4797 215.7253 0002156 070.0820 357.6331 14.23461339841094
Epoch (UTC): 18 September 2014 03:48:05
Eccentricity: 0.0002156
inclination: 98.4797°
perigee height: 812 km
apogee height: 815 km
right ascension of ascending node: 215.7253°
argument of perigee: 70.0820°
revolutions per day: 14.23461339
mean anomaly at epoch: 357.6331°
orbit number at epoch: 84109

The dashed part of the orbit path shows where the satellite is in the earth's shadow,  

DLR